When you browse on this site, cookies collect data to enhance your experience and personalize the content and advertising you see.
Visit our Privacy Policy to learn more. By continuing to use the site, you agree to this use of cookies and data.
  • In Hungary
  • List of Countries
  • For 7 days
  • Water Temperature
  • Weather Map
  • News
  • Weather Widgets
  • user-avatar
    Login

    Hourly Weather Novobzhegokay

    Today, 18 October, Friday

    Time Temperature Precipitation Wind Pressure Humidity
    00:00 +16°C° 0 mm 0 mps 761 mmHg 68%
    01:00 +16°C° 0 mm 0 mps 761 mmHg 69%
    02:00 +15°C° 0 mm 0 mps 761 mmHg 70%
    03:00 +15°C° 0 mm 0 mps 761 mmHg 70%
    04:00 +15°C° 0 mm 0 mps 761 mmHg 71%
    05:00 +15°C° 0 mm 0 mps 761 mmHg 72%
    06:00 +14°C° 0 mm 0 mps 760 mmHg 72%
    07:00 +16°C° 0 mm 0 mps 761 mmHg 67%
    08:00 +17°C° 0 mm 0 mps 761 mmHg 62%
    09:00 +19°C° 0 mm 0 mps 761 mmHg 57%
    10:00 +20°C° 0 mm 0 mps 761 mmHg 51%
    11:00 +22°C° 0 mm 0 mps 761 mmHg 46%
    12:00 +24°C° 0 mm 0 mps 761 mmHg 40%
    13:00 +26°C° 0 mm 1 mps 761 mmHg 39%
    14:00 +26°C° 0 mm 1 mps 760 mmHg 39%
    15:00 +27°C° 0 mm 1 mps 760 mmHg 38%
    16:00 +25°C° 0 mm 1 mps 760 mmHg 42%
    17:00 +24°C° 0 mm 1 mps 760 mmHg 47%
    18:00 +20°C° 0 mm 0 mps 760 mmHg 51%
    19:00 +21°C° 0 mm 1 mps 760 mmHg 54%
    20:00 +21°C° 0 mm 1 mps 760 mmHg 57%
    21:00 +20°C° 0 mm 1 mps 760 mmHg 60%
    22:00 +19°C° 0 mm 1 mps 760 mmHg 62%
    23:00 +19°C° 0 mm 1 mps 760 mmHg 64%

    Tomorrow, 19 October, Saturday

    Time Temperature Precipitation Wind Pressure Humidity
    00:00 +18°C° 0 mm 1 mps 760 mmHg 66%
    01:00 +18°C° 0 mm 1 mps 760 mmHg 67%
    02:00 +18°C° 0 mm 1 mps 761 mmHg 68%
    03:00 +16°C° 0 mm 1 mps 761 mmHg 69%
    04:00 +16°C° 0 mm 1 mps 761 mmHg 70%
    05:00 +16°C° 0 mm 1 mps 761 mmHg 71%
    06:00 +15°C° 0 mm 1 mps 761 mmHg 72%
    07:00 +16°C° 0 mm 0 mps 761 mmHg 68%
    08:00 +17°C° 0 mm 0 mps 762 mmHg 64%
    09:00 +18°C° 0 mm 0 mps 762 mmHg 59%
    10:00 +20°C° 0 mm 0 mps 762 mmHg 54%
    11:00 +22°C° 0 mm 0 mps 762 mmHg 49%
    12:00 +23°C° 0 mm 0 mps 762 mmHg 44%
    13:00 +26°C° 0 mm 1 mps 762 mmHg 43%
    14:00 +26°C° 0 mm 1 mps 762 mmHg 42%
    15:00 +26°C° 0 mm 1 mps 761 mmHg 41%
    16:00 +25°C° 0 mm 1 mps 761 mmHg 45%
    17:00 +23°C° 0 mm 1 mps 762 mmHg 49%
    18:00 +22°C° 0 mm 1 mps 762 mmHg 53%
    19:00 +21°C° 0 mm 1 mps 762 mmHg 55%
    20:00 +21°C° 0 mm 1 mps 762 mmHg 57%
    21:00 +20°C° 0 mm 1 mps 762 mmHg 59%
    22:00 +19°C° 0 mm 1 mps 762 mmHg 60%
    23:00 +19°C° 0 mm 1 mps 762 mmHg 62%

    Day after tomorrow, 20 October, Sunday

    Time Temperature Precipitation Wind Pressure Humidity
    00:00 +18°C° 0 mm 1 mps 762 mmHg 64%
    01:00 +18°C° 0 mm 1 mps 762 mmHg 65%
    02:00 +16°C° 0 mm 1 mps 762 mmHg 67%
    03:00 +15°C° 0 mm 0 mps 762 mmHg 68%
    04:00 +15°C° 0 mm 0 mps 763 mmHg 70%
    05:00 +15°C° 0 mm 1 mps 763 mmHg 71%
    06:00 +15°C° 0 mm 1 mps 763 mmHg 72%
    07:00 +16°C° 0 mm 1 mps 763 mmHg 67%
    08:00 +19°C° 0 mm 1 mps 763 mmHg 63%
    09:00 +20°C° 0 mm 1 mps 763 mmHg 58%
    10:00 +21°C° 0 mm 1 mps 763 mmHg 54%
    11:00 +23°C° 0 mm 2 mps 763 mmHg 49%
    12:00 +25°C° 0 mm 2 mps 764 mmHg 44%
    13:00 +25°C° 0 mm 2 mps 763 mmHg 43%
    14:00 +26°C° 0 mm 3 mps 763 mmHg 41%
    15:00 +27°C° 0 mm 3 mps 763 mmHg 39%
    16:00 +25°C° 0 mm 3 mps 763 mmHg 44%
    17:00 +24°C° 0 mm 3 mps 763 mmHg 49%
    18:00 +21°C° 0 mm 3 mps 763 mmHg 53%
    19:00 +21°C° 0 mm 3 mps 763 mmHg 55%
    20:00 +20°C° 0 mm 3 mps 763 mmHg 57%
    21:00 +19°C° 0 mm 4 mps 763 mmHg 59%
    22:00 +18°C° 0 mm 3 mps 763 mmHg 60%
    23:00 +18°C° 0 mm 3 mps 763 mmHg 62%

    21 October, Monday

    Time Temperature Precipitation Wind Pressure Humidity
    00:00 +17°C° 0 mm 3 mps 763 mmHg 64%
    01:00 +16°C° 0 mm 2 mps 763 mmHg 65%
    02:00 +16°C° 0 mm 2 mps 763 mmHg 66%
    03:00 +15°C° 0 mm 2 mps 763 mmHg 67%
    04:00 +15°C° 0 mm 2 mps 763 mmHg 68%
    05:00 +14°C° 0 mm 2 mps 763 mmHg 69%
    06:00 +14°C° 0 mm 2 mps 763 mmHg 70%
    07:00 +15°C° 0 mm 2 mps 763 mmHg 65%
    08:00 +16°C° 0 mm 3 mps 764 mmHg 61%
    09:00 +17°C° 0 mm 3 mps 764 mmHg 57%
    10:00 +19°C° 0 mm 3 mps 764 mmHg 52%
    11:00 +20°C° 0 mm 4 mps 764 mmHg 48%
    12:00 +22°C° 0 mm 4 mps 764 mmHg 43%
    13:00 +23°C° 0 mm 4 mps 763 mmHg 41%
    14:00 +23°C° 0 mm 4 mps 763 mmHg 38%
    15:00 +25°C° 0 mm 4 mps 763 mmHg 35%
    16:00 +22°C° 0 mm 4 mps 763 mmHg 39%
    17:00 +21°C° 0 mm 4 mps 763 mmHg 42%
    18:00 +19°C° 0 mm 4 mps 763 mmHg 45%
    19:00 +19°C° 0 mm 4 mps 763 mmHg 47%
    20:00 +18°C° 0 mm 4 mps 763 mmHg 49%
    21:00 +17°C° 0 mm 4 mps 763 mmHg 51%
    22:00 +15°C° 0 mm 4 mps 763 mmHg 55%
    23:00 +16°C° 0 mm 3 mps 763 mmHg 59%

    22 October, Tuesday

    Time Temperature Precipitation Wind Pressure Humidity
    00:00 +14°C° 0 mm 3 mps 763 mmHg 63%
    01:00 +14°C° 0 mm 3 mps 763 mmHg 66%
    02:00 +13°C° 0 mm 3 mps 763 mmHg 69%
    03:00 +14°C° 0 mm 2 mps 763 mmHg 71%
    04:00 +13°C° 0 mm 2 mps 763 mmHg 73%
    05:00 +13°C° 0 mm 2 mps 763 mmHg 75%
    06:00 +12°C° 0 mm 2 mps 763 mmHg 77%
    07:00 +14°C° 0 mm 2 mps 763 mmHg 73%
    08:00 +15°C° 0 mm 2 mps 763 mmHg 69%
    09:00 +16°C° 0 mm 2 mps 763 mmHg 65%
    10:00 +17°C° 0 mm 2 mps 763 mmHg 60%
    11:00 +19°C° 0 mm 2 mps 763 mmHg 55%
    12:00 +21°C° 0 mm 2 mps 763 mmHg 50%
    13:00 +21°C° 0 mm 2 mps 762 mmHg 49%
    14:00 +23°C° 0 mm 2 mps 762 mmHg 47%
    15:00 +24°C° 0 mm 2 mps 762 mmHg 46%
    16:00 +22°C° 0 mm 1 mps 762 mmHg 50%
    17:00 +21°C° 0 mm 1 mps 762 mmHg 55%
    18:00 +19°C° 0 mm 1 mps 762 mmHg 59%
    19:00 +19°C° 0 mm 1 mps 762 mmHg 60%
    20:00 +18°C° 0 mm 1 mps 762 mmHg 61%
    21:00 +16°C° 0 mm 1 mps 762 mmHg 62%
    22:00 +16°C° 0 mm 1 mps 762 mmHg 63%
    23:00 +15°C° 0 mm 1 mps 762 mmHg 65%

    23 October, Wednesday

    Time Temperature Precipitation Wind Pressure Humidity
    00:00 +15°C° 0 mm 1 mps 762 mmHg 66%
    01:00 +14°C° 0 mm 1 mps 762 mmHg 67%
    02:00 +14°C° 0 mm 1 mps 763 mmHg 68%
    03:00 +14°C° 0 mm 1 mps 763 mmHg 69%
    04:00 +13°C° 0 mm 1 mps 763 mmHg 70%
    05:00 +12°C° 0 mm 0 mps 763 mmHg 70%
    06:00 +11°C° 0 mm 0 mps 763 mmHg 71%
    07:00 +13°C° 0 mm 0 mps 763 mmHg 66%
    08:00 +14°C° 0 mm 0 mps 763 mmHg 62%
    09:00 +15°C° 0 mm 0 mps 763 mmHg 57%
    10:00 +19°C° 0 mm 1 mps 763 mmHg 51%
    11:00 +20°C° 0 mm 1 mps 764 mmHg 46%
    12:00 +22°C° 0 mm 1 mps 764 mmHg 41%
    13:00 +22°C° 0 mm 1 mps 763 mmHg 39%
    14:00 +23°C° 0 mm 1 mps 763 mmHg 36%
    15:00 +23°C° 0 mm 1 mps 763 mmHg 34%
    16:00 +21°C° 0 mm 1 mps 763 mmHg 38%
    17:00 +20°C° 0 mm 1 mps 763 mmHg 41%
    18:00 +18°C° 0 mm 1 mps 763 mmHg 45%
    19:00 +18°C° 0 mm 1 mps 763 mmHg 47%
    20:00 +16°C° 0 mm 1 mps 763 mmHg 48%
    21:00 +16°C° 0 mm 1 mps 764 mmHg 50%
    22:00 +15°C° 0 mm 1 mps 764 mmHg 52%
    23:00 +14°C° 0 mm 1 mps 764 mmHg 54%
    Show more